Prescott, AZ

5:24 PM MST on January 19, 2017 (GMT -0700)
Love

Weather History for KPRC - August, 2013

Change the Weather History Date:

Saturday, August 31, 2013

  Actual Average Record
Temperature  
Mean Temperature 71 °F 72 °F  
Max Temperature 77 °F 86 °F 101 °F (1950)
Min Temperature 65 °F 58 °F 45 °F (1957)
Degree Days  
Heating Degree Days 0    
Month to date heating degree days 0  
Since 1 July heating degree days 0  
Cooling Degree Days 6    
Month to date cooling degree days 289  
Year to date cooling degree days 1021  
Growing Degree Days 20 (Base 50)    
Moisture  
Dew Point 63 °F    
Average Humidity 84    
Maximum Humidity 100    
Minimum Humidity 50    
Precipitation  
Precipitation 0.06 in 0.07 in 0.70 in (1960)
Month to date precipitation 2.39 2.62  
Year to date precipitation 8.22 9.66  
Sea Level Pressure  
Sea Level Pressure 30.05 in    
Wind  
Wind Speed 2 mph (WSW)    
Max Wind Speed 17 mph    
Max Gust Speed 21 mph    
Visibility 8 miles    
Events Rain , Thunderstorm    
T = Trace of Precipitation, MM = Missing Value Source: NWS Daily Summary

Daily Weather History Graph

Daily Weather History Graph

Search for Another Location

Airport or City:

Trip Planner

Search our weather history database for the weather conditions in past years. The results will help you decide how hot, cold, wet, or windy it might be!

Date:

Astronomy

Aug. 31, 2013 Rise Set
Actual Time 6:02 AM MST 6:56 PM MST
Civil Twilight 5:36 AM MST 7:22 PM MST
Nautical Twilight 5:05 AM MST 7:53 PM MST
Astronomical Twilight 4:34 AM MST 8:24 PM MST
Moon 1:41 AM MST (8/31) 3:51 PM MST (8/31)
Length of Visible Light 13h 46m
Length of Day
12h 54m
Waning Crescent, 20% of the Moon is Illuminated
Aug 31
Waning Crescent
Sep 5
New
Sep 12
First Quarter
Sep 19
Full
Sep 26
Last Quarter

Hourly Weather History & Observations

Time (MST) Temp. Dew Point Humidity Pressure Visibility Wind Dir Wind Speed Gust Speed Precip Events Conditions
12:53 AM 66.9 °F 64.0 °F 90% 30.01 in 10.0 mi Calm Calm - 0.01 in   Clear
1:53 AM 66.0 °F 64.0 °F 93% 30.00 in 10.0 mi Calm Calm - N/A   Clear
2:46 AM 66.2 °F 62.6 °F 88% 30.21 in 10.0 mi Calm Calm - N/A   Partly Cloudy
2:53 AM 66.9 °F 64.0 °F 90% 29.97 in 10.0 mi Calm Calm - N/A   Partly Cloudy
3:19 AM 66.2 °F 64.4 °F 94% 30.20 in 4.0 mi Calm Calm - N/A   Mostly Cloudy
3:26 AM 66.2 °F 64.4 °F 94% 30.20 in 3.0 mi Calm Calm - N/A   Mostly Cloudy
3:53 AM 66.0 °F 64.9 °F 96% 29.96 in 4.0 mi Calm Calm - N/A   Overcast
4:01 AM 66.2 °F 64.4 °F 94% 30.20 in 1.8 mi Calm Calm - N/A   Overcast
4:14 AM 64.4 °F 64.4 °F 100% 30.19 in 0.8 mi Calm Calm - N/A   Overcast
4:49 AM 64.4 °F 64.4 °F 100% 30.19 in 1.5 mi Calm Calm - N/A   Overcast
4:53 AM 64.9 °F 64.0 °F 97% 29.97 in 2.5 mi Calm Calm - N/A   Overcast
5:00 AM 64.4 °F 64.4 °F 100% 30.20 in 8.0 mi Calm Calm - N/A   Mostly Cloudy
5:22 AM 64.4 °F 64.4 °F 100% 30.20 in 9.0 mi SW 3.5 mph - N/A   Scattered Clouds
5:53 AM 64.9 °F 64.0 °F 97% 29.99 in 10.0 mi Calm Calm - N/A   Mostly Cloudy
6:53 AM 66.0 °F 63.0 °F 90% 30.00 in 10.0 mi Calm Calm - N/A   Mostly Cloudy
7:53 AM 68.0 °F 64.0 °F 87% 30.01 in 10.0 mi Calm Calm - N/A   Mostly Cloudy
8:03 AM 68.0 °F 64.4 °F 88% 30.23 in 10.0 mi Calm Calm - N/A   Mostly Cloudy
8:53 AM 69.1 °F 64.0 °F 84% 30.01 in 10.0 mi Calm Calm - N/A   Mostly Cloudy
9:53 AM 72.0 °F 64.0 °F 76% 30.01 in 10.0 mi Calm Calm - N/A   Mostly Cloudy
10:53 AM 75.9 °F 63.0 °F 64% 29.99 in 10.0 mi Variable 6.9 mph - N/A Thunderstorm Thunderstorm
11:15 AM 69.8 °F 62.6 °F 78% 30.22 in 1.8 mi SSW 8.1 mph - 0.03 in Rain , Thunderstorm Heavy Thunderstorms and Rain
11:23 AM 69.8 °F 62.6 °F 78% 30.22 in 3.0 mi SW 10.4 mph - 0.05 in Rain , Thunderstorm Light Thunderstorms and Rain
11:53 AM 71.1 °F 63.0 °F 75% 29.98 in 10.0 mi SW 3.5 mph - 0.05 in Thunderstorm Thunderstorm
12:53 PM 75.9 °F 55.9 °F 50% 29.96 in 10.0 mi West 11.5 mph - N/A Thunderstorm Thunderstorm
1:53 PM 73.9 °F 59.0 °F 59% 29.98 in 10.0 mi NNE 13.8 mph - N/A   Mostly Cloudy
3:53 PM 72.0 °F 60.1 °F 66% 29.95 in 10.0 mi North 3.5 mph - 0.00 in   Partly Cloudy
4:53 PM 73.0 °F 61.0 °F 66% 29.93 in 10.0 mi NE 4.6 mph - N/A   Clear
5:53 PM 73.0 °F 61.0 °F 66% 29.92 in 10.0 mi Calm Calm - N/A   Scattered Clouds
6:53 PM 71.1 °F 61.0 °F 70% 29.92 in 10.0 mi Calm Calm - N/A   Clear
7:53 PM 70.0 °F 63.0 °F 78% 29.94 in 10.0 mi Calm Calm - N/A   Clear
8:53 PM 69.1 °F 62.1 °F 78% 29.96 in 10.0 mi Calm Calm - N/A   Clear
9:53 PM 64.9 °F 62.1 °F 90% 29.97 in 10.0 mi SSW 3.5 mph - N/A   Scattered Clouds
10:53 PM 64.9 °F 62.1 °F 90% 29.94 in 10.0 mi Calm Calm - N/A   Clear
11:53 PM 64.9 °F 61.0 °F 87% 29.96 in 10.0 mi Calm Calm - N/A   Partly Cloudy